Tracking 31027 objects as of 19-Jul-2025
HD Live streaming from Space Station
objects crossing your sky now

GEESAT 2-07

Track GEESAT 2-07 now!
10-day predictions


NORAD ID: 58911
Int'l Code: 2024-023G
Perigee: 590.2 km
Apogee: 598.3 km
Inclination: 50.0 °
Period: 96.4 minutes
Semi major axis: 6965 km
RCS: Unknown
Launch date: February 2, 2024
Source: People's Republic of China (PRC)
Launch site: Xichang Space Center, China (XSC)
Your satellite tracking list
NUSAT-20 (GRACE)
Track 1 satellite(s)




NASA's NSSDC Master Catalog

Two Line Element Set (TLE):
1 58911U 24023G   25199.84120899  .00002547  00000-0  26250-3 0  9998
2 58911  50.0051 103.5095 0005816 330.9474  29.1144 14.93477220 79365
Source of the keplerian elements: AFSPC